Wind_Speed
42 43 44 44 44 45 46 46 46 45 44 44 44 42 41 41 41 39 38 38 37 36 35 34 34 33 32 32 33 33 32 32 32 33 33 33 33 33 33 33 33 34 34 34
42 42 41 42 43 45 46 47 45 44 44 45 45 43 42 42 41 40 39 38 38 37 37 36 34 34 33 33 33 33 33 33 34 34 34 34 34 35 35 35 35 35 35 35
40 40 41 42 43 44 45 45 45 44 45 46 46 45 43 43 42 41 40 39 39 38 38 37 36 35 34 34 34 35 35 35 35 35 35 35 35 36 36 36 36 36 36 36
39 40 42 42 42 43 44 43 43 43 44 45 46 46 44 43 43 42 41 40 39 39 39 38 38 37 36 36 36 36 36 37 36 36 36 36 37 37 37 37 37 37 37 37
39 39 41 42 41 41 41 41 42 43 44 45 45 46 45 43 42 41 41 40 39 39 40 39 39 38 38 38 37 37 37 38 38 38 38 38 38 38 38 38 38 38 38 39
37 39 40 41 41 40 40 41 42 42 44 46 44 46 45 42 40 40 40 40 40 40 40 40 39 39 39 39 39 39 38 38 39 39 39 39 39 39 39 39 39 40 40 40
37 38 40 40 42 42 41 42 42 43 45 46 44 46 45 41 40 39 39 40 40 40 41 41 41 41 40 40 40 40 40 40 40 40 40 40 40 40 40 41 41 41 41 42
35 37 39 40 41 41 41 42 43 44 45 46 45 46 44 41 39 39 39 40 40 40 40 41 42 42 42 42 41 41 41 40 41 41 41 42 42 42 42 42 42 43 43 43
34 35 38 39 39 41 41 42 41 41 44 45 46 46 44 41 39 38 39 39 39 40 40 40 41 41 41 41 41 42 42 42 42 42 42 43 43 43 43 43 44 44 44 45
33 34 36 37 38 41 41 41 41 41 41 43 45 45 43 41 39 38 38 38 39 39 40 40 40 41 41 42 42 43 43 43 42 43 43 43 43 44 44 44 44 45 45 45
33 33 35 35 36 37 39 41 42 42 42 42 43 44 43 41 39 38 38 38 39 40 39 39 40 40 41 42 42 42 42 42 43 43 43 43 43 44 44 44 44 45 45 45
33 34 33 34 34 35 35 38 41 42 42 42 43 42 40 39 39 39 38 39 39 40 39 39 40 39 39 40 41 42 42 42 42 42 43 43 43 44 44 44 45 45 46 46
31 33 33 34 36 36 36 36 39 40 40 41 41 41 39 38 38 38 39 39 38 39 39 40 40 41 40 40 40 41 41 41 41 41 42 42 43 44 44 44 45 45 46 47
31 33 33 33 34 36 37 36 37 39 40 41 40 39 38 37 37 37 38 38 38 38 39 40 40 41 40 40 40 40 40 40 41 41 41 42 43 44 44 45 45 46 47 48
31 33 34 33 33 34 36 37 38 39 39 40 38 38 36 36 36 36 36 37 37 38 38 38 38 39 40 40 40 40 40 41 41 41 41 41 42 44 44 45 46 47 48 49
31 32 33 34 33 33 34 36 37 38 39 40 39 38 36 37 37 36 36 36 36 36 37 37 37 38 39 40 40 40 41 41 41 42 42 43 43 44 44 45 46 48 48 49
30 31 32 33 32 33 35 34 34 36 36 37 38 37 38 38 37 36 36 35 35 36 36 36 37 37 38 39 40 40 41 41 42 42 43 43 44 44 44 46 47 47 48 48
30 31 32 33 34 34 34 34 35 35 36 37 36 36 36 38 38 37 37 36 36 36 36 36 37 37 37 38 39 40 41 42 42 43 43 44 44 45 45 45 45 45 46 47
29 29 30 31 34 34 34 34 34 34 35 36 36 36 36 36 38 38 37 37 37 37 36 36 37 37 37 37 38 39 40 41 42 42 43 44 44 44 45 45 45 45 46 46
27 29 30 30 31 31 31 31 32 33 34 34 35 35 35 36 37 37 36 37 38 37 37 36 36 36 37 36 37 37 39 40 41 42 43 43 44 45 45 45 45 45 46 46
27 28 30 31 30 29 29 29 30 31 32 32 32 33 34 35 36 37 37 37 38 37 37 37 37 37 37 37 37 38 38 39 40 41 42 42 43 44 44 45 45 45 46 45
25 27 29 31 30 28 27 27 29 30 30 31 31 31 31 33 34 35 36 36 36 36 37 37 37 37 37 38 38 38 39 39 40 41 42 43 43 44 44 44 44 45 45 45
23 25 27 29 28 26 26 26 27 28 29 30 30 30 31 32 33 33 34 35 36 36 36 37 38 38 38 39 39 39 39 40 40 41 42 42 41 42 43 43 43 43 43 43
21 22 24 26 26 26 25 25 26 26 27 28 29 30 30 31 32 33 34 35 36 36 37 38 38 38 39 39 39 39 38 39 40 40 40 40 40 41 41 41 41 41 41 41
19 20 22 23 25 26 26 26 26 26 27 27 28 29 30 31 32 33 34 35 36 36 37 37 38 39 39 39 38 38 38 38 38 39 39 39 39 39 39 39 39 39 39 39
19 20 20 21 23 24 25 26 26 27 28 28 28 29 30 31 31 32 32 33 34 35 36 36 36 37 37 37 37 37 37 37 37 37 37 37 37 38 38 38 38 38 38 38
Wind_Direction
227 227 226 228 229 229 229 230 230 230 231 232 233 233 233 234 235 235 236 236 237 238 239 241 242 243 245 246 248 250 251 252 252 254 255 257 259 261 262 263 265 267 268 269
226 226 225 226 228 228 228 229 229 230 231 232 233 233 233 234 235 236 236 237 237 238 240 241 243 244 245 247 249 251 252 253 254 255 257 258 260 261 262 264 265 267 268 270
226 225 224 225 227 227 228 229 230 231 231 233 234 233 233 234 235 236 237 237 238 238 240 242 243 244 246 248 250 252 254 255 255 256 257 258 260 261 263 265 267 268 269 270
225 223 223 223 225 227 229 229 231 232 232 233 234 235 232 234 236 236 237 238 239 240 240 241 243 245 247 249 250 252 254 256 256 257 258 259 260 262 264 265 267 268 269 271
225 224 223 223 224 226 228 228 230 232 234 235 235 237 233 234 236 238 238 239 241 242 242 243 244 246 247 249 251 253 255 256 257 258 259 259 261 263 264 265 266 268 269 271
225 225 225 224 223 224 226 227 229 232 234 236 236 239 236 235 236 239 240 241 242 243 244 244 245 247 248 250 252 253 255 256 256 257 258 260 261 263 264 265 266 268 270 271
226 226 225 224 223 222 225 227 229 232 234 237 237 239 238 236 237 239 241 242 243 244 245 246 247 248 250 252 253 254 255 256 257 257 258 260 262 263 265 266 267 268 269 271
226 225 224 224 225 225 226 228 230 234 237 239 238 239 239 237 238 240 242 243 243 245 246 247 247 248 250 252 253 254 255 256 257 258 259 260 262 264 265 267 268 268 270 271
226 226 224 225 226 226 226 227 229 236 239 241 241 241 241 240 241 241 242 243 244 245 246 247 247 248 249 251 252 254 255 256 258 259 260 261 263 264 265 267 268 268 270 271
225 226 225 226 227 227 227 228 229 233 237 241 242 242 242 241 242 243 244 244 244 246 246 246 246 248 249 251 253 255 256 257 258 259 260 262 264 265 266 266 267 268 270 271
223 225 225 226 227 228 228 228 230 234 238 241 243 243 243 244 244 245 245 245 246 247 247 247 247 248 250 251 253 255 255 257 258 259 260 261 263 264 266 266 267 268 269 271
225 226 227 227 226 226 228 229 231 235 238 240 244 245 245 247 247 247 247 247 247 249 249 248 248 249 251 252 252 254 255 257 258 259 260 261 262 264 266 267 268 269 270 271
225 227 229 230 228 227 228 229 231 235 238 240 242 245 246 248 248 248 248 248 249 250 250 249 249 249 250 252 253 254 255 256 257 258 260 261 262 264 266 267 268 269 270 272
228 228 229 232 233 233 233 232 232 235 238 241 243 246 246 248 248 249 249 249 250 251 251 251 250 250 250 251 253 253 255 256 258 259 260 261 263 265 266 267 268 269 271 273
230 231 231 231 232 234 235 235 236 238 239 241 243 246 246 247 248 250 251 251 251 252 253 253 252 251 251 251 252 254 255 257 258 259 260 262 264 265 266 268 269 270 272 274
231 233 233 233 233 233 234 235 237 238 240 241 243 244 246 248 248 250 252 251 252 252 253 252 252 251 250 251 252 254 255 257 258 259 260 261 264 266 267 269 271 271 273 275
233 234 234 233 234 233 234 235 238 239 239 242 243 244 245 247 249 250 250 250 251 252 252 251 251 251 252 252 252 253 254 256 257 258 260 262 264 266 268 269 271 272 273 275
234 236 237 236 235 237 237 238 239 239 239 240 241 242 244 246 247 248 249 249 249 251 252 252 252 252 253 253 253 254 255 256 258 258 260 263 265 267 269 271 272 273 274 275
235 236 237 236 237 240 240 240 240 240 240 241 243 243 245 246 246 248 250 250 250 250 251 252 252 252 254 255 255 256 256 257 259 259 261 263 265 267 269 270 272 273 274 276
235 237 238 237 237 238 237 239 240 241 242 240 241 243 244 245 246 246 248 249 249 250 251 250 251 252 254 256 257 258 258 259 260 261 262 264 265 267 269 270 271 273 275 276
236 239 239 239 240 239 238 238 238 239 240 240 241 241 243 244 245 245 247 249 250 251 252 250 251 253 255 257 259 260 260 262 263 264 264 265 267 268 269 271 271 272 274 276
238 241 241 241 242 240 240 240 239 239 240 240 242 242 243 243 244 245 247 249 250 251 252 252 253 254 256 259 260 261 261 263 264 266 267 267 268 270 270 271 272 273 274 276
240 240 241 242 241 241 241 241 240 240 241 241 242 244 245 246 247 247 248 249 250 252 253 253 254 256 258 260 261 262 263 265 266 267 268 269 270 270 271 271 272 272 274 275
240 240 240 239 239 239 240 242 242 243 243 243 244 245 247 248 248 250 250 250 251 252 253 254 255 256 258 260 261 263 265 267 267 268 269 269 268 269 270 271 271 272 273 274
240 241 242 243 243 241 240 242 244 244 245 247 247 247 248 250 250 251 251 252 253 253 253 254 255 257 258 260 262 263 265 266 267 267 266 267 267 267 268 268 269 270 271 273
240 242 244 246 245 243 242 243 245 247 247 248 250 250 250 250 251 252 252 253 254 254 254 254 254 257 259 260 261 263 265 266 266 266 266 267 266 267 266 266 268 269 271 274
Height
5657 5663 5669 5678 5684 5691 5696 5702 5708 5715 5719 5723 5729 5734 5739 5742 5747 5752 5756 5760 5764 5768 5771 5774 5777 5779 5782 5784 5787 5789 5791 5792 5794 5796 5797 5798 5799 5801 5801 5802 5803 5803 5803 5803
5648 5655 5664 5669 5674 5680 5686 5692 5699 5705 5710 5714 5719 5725 5730 5734 5739 5744 5748 5752 5757 5760 5763 5766 5769 5772 5775 5777 5779 5781 5783 5785 5786 5788 5790 5791 5792 5793 5793 5794 5794 5795 5795 5795
5640 5649 5654 5659 5665 5671 5677 5684 5691 5696 5701 5704 5710 5715 5721 5726 5730 5735 5739 5743 5748 5751 5755 5758 5761 5764 5767 5769 5771 5773 5775 5776 5778 5780 5781 5782 5783 5784 5785 5786 5786 5786 5786 5786
5632 5639 5644 5650 5657 5663 5669 5677 5682 5687 5691 5695 5701 5705 5713 5717 5721 5726 5731 5735 5739 5743 5746 5749 5753 5756 5758 5761 5763 5765 5766 5768 5770 5771 5772 5774 5775 5776 5777 5777 5777 5777 5777 5777
5625 5631 5636 5642 5650 5656 5662 5668 5673 5677 5681 5686 5691 5695 5704 5709 5713 5718 5723 5727 5730 5734 5737 5741 5744 5747 5749 5752 5754 5756 5757 5759 5761 5762 5763 5765 5766 5767 5767 5768 5768 5768 5768 5768
5618 5623 5629 5636 5642 5648 5654 5659 5664 5667 5671 5675 5682 5686 5693 5701 5706 5710 5714 5718 5721 5724 5728 5731 5734 5737 5740 5742 5745 5747 5749 5750 5751 5752 5754 5755 5756 5757 5758 5758 5758 5758 5758 5758
5611 5615 5621 5627 5633 5638 5644 5650 5655 5658 5660 5667 5674 5676 5685 5692 5697 5701 5705 5708 5711 5715 5719 5722 5725 5728 5730 5732 5735 5737 5739 5740 5741 5742 5744 5745 5746 5747 5748 5748 5748 5748 5748 5748
5604 5609 5614 5619 5625 5631 5637 5642 5647 5651 5655 5660 5664 5667 5677 5683 5688 5692 5695 5698 5701 5705 5709 5712 5715 5718 5720 5722 5724 5726 5728 5730 5731 5732 5734 5735 5736 5737 5737 5737 5737 5737 5737 5737
5597 5603 5607 5613 5618 5623 5628 5633 5639 5643 5646 5650 5654 5660 5667 5673 5678 5682 5686 5689 5692 5696 5699 5702 5704 5707 5709 5712 5714 5716 5718 5719 5721 5722 5723 5724 5725 5726 5726 5726 5726 5726 5726 5725
5590 5596 5601 5606 5610 5615 5621 5626 5630 5633 5637 5641 5646 5651 5658 5664 5669 5673 5677 5680 5683 5686 5689 5692 5694 5697 5699 5701 5703 5705 5706 5708 5710 5711 5712 5713 5714 5715 5715 5715 5715 5715 5714 5714
5584 5589 5594 5598 5603 5608 5613 5618 5621 5625 5629 5633 5637 5645 5650 5655 5660 5664 5667 5670 5673 5676 5679 5681 5684 5686 5688 5690 5692 5694 5696 5697 5699 5700 5701 5702 5703 5703 5703 5703 5703 5703 5703 5702
5577 5582 5586 5592 5596 5600 5605 5609 5614 5618 5622 5625 5629 5638 5641 5646 5649 5653 5657 5660 5663 5665 5668 5671 5673 5676 5677 5679 5681 5683 5685 5686 5687 5689 5690 5690 5691 5691 5692 5692 5691 5691 5691 5690
5570 5575 5579 5583 5590 5593 5596 5601 5605 5609 5613 5617 5621 5630 5632 5636 5639 5643 5646 5649 5652 5655 5657 5660 5662 5665 5667 5669 5670 5672 5674 5675 5676 5677 5678 5679 5680 5680 5680 5680 5680 5679 5679 5678
5563 5567 5573 5577 5580 5585 5590 5594 5597 5601 5604 5609 5614 5619 5624 5627 5630 5633 5636 5639 5642 5645 5647 5649 5652 5654 5656 5658 5660 5661 5663 5664 5665 5666 5667 5668 5669 5669 5669 5669 5668 5668 5667 5666
5556 5560 5564 5568 5572 5576 5581 5586 5589 5593 5596 5601 5606 5609 5614 5617 5620 5623 5626 5629 5632 5634 5636 5638 5641 5643 5645 5647 5649 5650 5652 5653 5654 5655 5656 5657 5657 5657 5657 5657 5657 5656 5655 5654
5548 5552 5556 5561 5565 5568 5572 5577 5581 5584 5588 5591 5595 5600 5605 5608 5611 5613 5616 5618 5621 5623 5626 5628 5629 5631 5633 5635 5637 5639 5641 5642 5643 5644 5645 5645 5646 5646 5646 5646 5645 5644 5643 5642
5542 5546 5549 5553 5557 5560 5564 5569 5572 5576 5579 5583 5586 5593 5595 5598 5601 5604 5606 5608 5611 5613 5615 5617 5619 5620 5622 5624 5626 5627 5629 5630 5631 5632 5633 5634 5634 5634 5634 5634 5633 5632 5631 5629
5536 5539 5541 5545 5550 5553 5560 5561 5564 5567 5571 5574 5578 5582 5585 5588 5590 5593 5596 5598 5601 5603 5605 5607 5608 5610 5612 5613 5615 5616 5617 5619 5620 5620 5621 5622 5622 5623 5622 5622 5621 5620 5619 5618
5529 5532 5535 5538 5541 5544 5550 5553 5556 5559 5563 5566 5569 5572 5575 5578 5580 5583 5586 5588 5591 5593 5595 5596 5598 5600 5601 5603 5604 5605 5606 5607 5608 5609 5609 5610 5610 5611 5610 5610 5609 5608 5607 5605
5522 5524 5528 5530 5533 5537 5542 5545 5547 5551 5554 5558 5560 5563 5566 5568 5572 5575 5576 5578 5580 5583 5584 5586 5588 5590 5591 5593 5594 5594 5595 5596 5597 5597 5598 5598 5598 5599 5598 5598 5597 5596 5595 5593
5516 5517 5520 5523 5525 5529 5534 5536 5539 5544 5547 5549 5551 5554 5556 5559 5562 5565 5567 5569 5571 5573 5574 5576 5578 5579 5581 5582 5583 5584 5585 5585 5586 5586 5587 5587 5587 5587 5587 5586 5585 5584 5583 5581
5509 5511 5514 5516 5519 5525 5527 5529 5532 5534 5537 5540 5542 5545 5548 5550 5552 5555 5557 5559 5561 5563 5564 5566 5568 5569 5571 5572 5573 5573 5574 5575 5575 5575 5575 5575 5575 5575 5575 5574 5573 5572 5571 5569
5503 5505 5507 5510 5515 5517 5519 5521 5523 5525 5528 5531 5534 5536 5539 5541 5543 5545 5547 5550 5551 5553 5554 5556 5557 5559 5560 5561 5562 5563 5563 5563 5564 5564 5564 5564 5563 5563 5563 5562 5561 5560 5559 5557
5497 5499 5501 5503 5507 5510 5512 5513 5515 5518 5520 5523 5525 5528 5530 5532 5534 5536 5538 5540 5541 5543 5545 5546 5547 5549 5550 5551 5551 5552 5553 5553 5553 5553 5552 5552 5552 5552 5551 5550 5549 5549 5548 5546
5491 5493 5495 5497 5500 5502 5504 5506 5508 5510 5512 5515 5517 5519 5521 5523 5525 5527 5528 5530 5531 5533 5534 5535 5537 5538 5539 5540 5541 5541 5541 5541 5541 5541 5541 5541 5541 5540 5540 5539 5538 5537 5537 5535
5486 5488 5489 5491 5493 5495 5498 5499 5501 5503 5505 5507 5509 5511 5512 5514 5516 5517 5519 5520 5521 5523 5524 5525 5526 5528 5529 5529 5530 5530 5530 5530 5530 5531 5531 5530 5530 5530 5529 5529 5528 5527 5526 5524